Regional Weather Roundup
Issued by NWS

Home | Current Version | Previous Version | Graphics & Text | Print | Product List | Glossary On
Versions: 1 2 3 4 5 6 7 8 9 10 11 12 13 14 15 16 17 18 19 20 21 22 23 24 25 26 27 28 29 30 31 32 33 34 35 36 37 38 39 40 41 42 43 44 45 46 47 48 49 50
785
ASUS45 KCYS 221610
RWRWY

WYOMING REGIONAL WEATHER ROUNDUP
NATIONAL WEATHER SERVICE CHEYENNE WY
1000 AM MDT THU JUN 22 2017

NOTE:  "FAIR" INDICATES FEW OR NO CLOUDS BELOW 12,000 FEET
WITH NO SIGNIFICANT WEATHER AND/OR OBSTRUCTIONS TO VISIBILITY.

WYZ001-221700-
YELLOWSTONE NATIONAL PARK

CITY           SKY/WX    TMP DP  RH WIND       PRES   REMARKS
LK YELLOWSTONE   N/A     52  32  46 CALM      30.22R
W YELLOWSTONE  NOT AVBL

$$
WYZ002>013-054>058-071-098>099-221700-
NORTHERN WYOMING

CITY           SKY/WX    TMP DP  RH WIND       PRES   REMARKS
JACKSON        SUNNY     64  37  36 CALM      30.14S
CODY           FAIR      62  34  35 N9        30.08F
GREYBULL       FAIR      71  28  20 NW18      30.00R
WORLAND        FAIR      70  32  24 NW14      30.02S
SHERIDAN       FAIR      67  41  38 N6        30.02F
BUFFALO        FAIR      62  35  36 NE13      30.07F
GILLETTE       FAIR      64  39  39 N13       30.02F
NEWCASTLE      FAIR      63  45  51 NW18G25   29.97R

$$
WYZ014>020-022>026-101>103-221700-
CENTRAL WYOMING

CITY           SKY/WX    TMP DP  RH WIND       PRES   REMARKS
BIG PINEY      FAIR      70  36  28 N15       30.13F
PINEDALE       FAIR      64  36  34 NW16      30.14S
DUBOIS         FAIR      64  30  27 N13G20    30.12F
LANDER         FAIR      67  35  30 E9        30.08F
RIVERTON       FAIR      68  30  24 NE12      30.06S
CASPER         FAIR      64  38  38 NE15G21   30.08R
DOUGLAS        FAIR      68  39  34 N17G28    30.05R

$$
WYZ021-027>030-104>119-221700-
SOUTHERN WYOMING

CITY           SKY/WX    TMP DP  RH WIND       PRES   REMARKS
EVANSTON       FAIR      69  35  28 W9        30.17S
KEMMERER         N/A     64  32  29 W13G21    30.17R
FORT BRIDGER   FAIR      72  31  22 W13       30.17F
ROCK SPRINGS   FAIR      70  29  21 NW6       30.11S
DIXON          FAIR      75  40  28 W5        30.11R
RAWLINS        FAIR      70  42  36 CALM      30.09S
SARATOGA       FAIR      72  41  33 N8        30.09F
LARAMIE        FAIR      70  41  34 N14       30.08S
CHEYENNE       FAIR      69  46  43 N18G29    30.02R
TORRINGTON     FAIR      76  42  29 N18G32    29.91S
PINE BLUFFS    FAIR      72  46  40 N25       29.97R

$$




USA.gov is the U.S. government's official web portal to all federal, state and local government web resources and services.